This is the latest recevied weather packets stored in our database for station/object IW1CBG-3. If no packets are shown the sender has not sent any weather packets the latest 10 day(s).
| Time | Temp. | Humidity | Pressure | Rain* | Wind** | Luminosity | Snow |
|---|---|---|---|---|---|---|---|
| 1777892867 | 14.44° C | 78% | 1029 hPa | 0 mm | - | - | - |
| 1777892267 | 14.44° C | 74% | 1028.9 hPa | 0 mm | - | - | - |
| 1777891668 | 15° C | 74% | 1029 hPa | 0 mm | - | - | - |
| 1777891068 | 14.44° C | 73% | 1029.2 hPa | 0 mm | - | - | - |
| 1777890468 | 14.44° C | 75% | 1029.2 hPa | 0 mm | - | - | - |
| 1777889868 | 13.89° C | 78% | 1029.4 hPa | 0 mm | - | - | - |
| 1777889268 | 13.89° C | 77% | 1029.8 hPa | 0 mm | - | - | - |
| 1777888667 | 13.89° C | 77% | 1029.5 hPa | 0 mm | - | - | - |
| 1777888067 | 13.89° C | 77% | 1029.6 hPa | 0 mm | - | - | - |
| 1777887467 | 14.44° C | 75% | 1029.4 hPa | 0 mm | - | - | - |
| 1777886867 | 14.44° C | 77% | 1029.6 hPa | 0 mm | - | - | - |
| 1777886267 | 13.89° C | 77% | 1029.6 hPa | 0 mm | - | - | - |
| 1777885668 | 13.89° C | 77% | 1029.8 hPa | 0 mm | - | - | - |
| 1777885069 | 13.89° C | 76% | 1029.8 hPa | 0 mm | - | - | - |
| 1777883868 | 13.89° C | 76% | 1029.5 hPa | 0 mm | - | - | - |
| 1777883268 | 13.33° C | 74% | 1029.6 hPa | 0 mm | - | - | - |
| 1777882667 | 13.33° C | 75% | 1030 hPa | 0 mm | - | - | - |
| 1777882067 | 13.89° C | 77% | 1030 hPa | 0 mm | - | - | - |
| 1777881469 | 13.89° C | 72% | 1030.4 hPa | 0 mm | - | - | - |
| 1777880868 | 13.33° C | 68% | 1030.3 hPa | 0 mm | - | - | - |
| 1777880267 | 12.78° C | 72% | 1030.2 hPa | 0 mm | - | - | - |
| 1777879668 | 12.22° C | 76% | 1030.2 hPa | 0 mm | - | - | - |
| 1777879068 | 12.22° C | 77% | 1030 hPa | 0 mm | - | - | - |
| 1777878468 | 12.22° C | 77% | 1030.1 hPa | 0 mm | - | - | - |
| 1777877869 | 11.67° C | 79% | 1030.2 hPa | 0 mm | - | - | - |
* Rain latest hour (hover to see other rain measurements)
** Current wind speed in m/s (hover to see current wind gust speed)